Location: Casco Millpond
(44.5581°N, 87.6111°W)
Time: 08:26:43
(UTC+00:00)

Cosmos 2228 Rocket - Pass Details

Date: 16 January 2026
Orbit: 611 x 647 km, 82.5° (Epoch: 9 February)

Event Time Altitude Azimuth Distance (km) Brightness Sun altitude
Rises 12:33:17 0° 347° (NNW) 2,896 6.2 -8.9°
Reaches altitude 10° 12:35:33 10° 344° (NNW) 1,983 5.3 -8.5°
Maximum altitude 12:39:51 59° 266° (W) 711 3.1 -7.8°
Drops below altitude 10° 12:44:07 10° 186° (S) 1,962 5.9 -7.1°
Sets 12:46:20 0° 183° (S) 2,862 6.8 -6.7°
